Content
SEND FEEDBACK

Daily
Averages
Monthly
Summary
United Kingdom

NUNEHAM COURTENAY, ENGLAND


Home > Europe > United Kingdom > England
Elevation: 207 feet     Latitude: 51 42N     Longitude: 001 12W

WEATHER
 
SELECT A DAY
Number of Records: 155,407;   Date Range: 7/1/96 - 7/22/14
 
SHARE

PRINT THIS DATA

[ ← Previous Day ]
WEATHER ALMANAC - SEPTEMBER 8, 2013
[ Next Day → ]
[ °C ]   °F
Weather ElementAverageHighLow
Temperature52.8 °F59 °F (10:50 am)42.8 °F (5:50 am)
Dewpoint46 °F49 °F (9:50 pm)42.8 °F (5:50 am)
Humidity78 %100 % (12:50 am)51 % (3:50 pm)
Barometer30.04 in30.07 in (9:50 am)30.01 in (5:50 pm)
Wind Speed7.5 mph11.5 mph (1:50 pm)
Weather ElementAverage
Visibility8.7 mi
Wind DirectionSSW (192.3 °)

Weather ElementTotal
Precipitation---
Heating Degree Days14.1 (Base 65)
Growing Degree Days0.9 (Base 50)
Averaged from 30 records on September 8, 2013
WEATHER CONDITIONS BREAKOUT
WIND DIRECTION BREAKOUT
WEATHER BY HOUR - SEPTEMBER 8, 2013
[ °C ]   °F
Local TimeTemperatureDewpointHumidityBarometerVisibilityWind DirectionWind SpeedGust SpeedPrecipitationEventsConditions
12:50 AM48.2 °F48.2 °F100 %30.04 in6.2 miSSE (150°)4.6 mphMostly Cloudy
1:50 AM50.0 °F48.2 °F94 %30.04 in6.2 miSouth (170°)3.5 mphOvercast
2:50 AM46.4 °F46.4 °F100 %30.04 in6.2 miSSE (150°)5.8 mphPartly Cloudy
3:50 AM46.0 °F44.0 °F92 %30.05 in16.0 miSouth (170°)4.6 mphScattered Clouds
3:50 AM46.4 °F44.6 °F93 %30.04 in6.2 miSouth (170°)4.6 mphPartly Cloudy
4:50 AM44.6 °F44.6 °F100 %30.04 in6.2 miSSE (160°)5.8 mphPartly Cloudy
5:50 AM42.8 °F42.8 °F100 %30.04 in6.2 miSouth (180°)4.6 mph
6:50 AM42.8 °F42.8 °F100 %30.04 in6.2 miSouth (170°)5.8 mph
7:50 AM50.0 °F46.4 °F87 %30.04 in6.2 miSouth (190°)4.6 mph
8:50 AM53.6 °F46.4 °F77 %30.04 in6.2 miSSW (200°)6.9 mphPartly Cloudy
9:50 AM55.0 °F46.0 °F64 %30.07 in22.0 miSW (220°)10.4 mphScattered Clouds
9:50 AM55.4 °F46.4 °F72 %30.06 in6.2 miSW (220°)10.4 mphScattered Clouds
10:50 AM59.0 °F46.4 °F63 %30.04 in6.2 miSW (220°)9.2 mphPartly Cloudy
11:50 AM59.0 °F44.6 °F59 %30.04 in6.2 miSSW (200°)9.2 mphScattered Clouds
12:50 PM55.4 °F48.2 °F77 %30.04 in6.2 miSSW (200°)8.1 mphMostly Cloudy
12:50 PM56.0 °F48.0 °F67 %30.06 in11.0 miSSW (200°)8.1 mphScattered Clouds
1:50 PM53.6 °F46.4 °F77 %30.04 in4.3 miSW (220°)11.5 mphMostly Cloudy
2:50 PM59.0 °F44.6 °F59 %30.04 in6.2 miWSW (240°)8.1 mphMostly Cloudy
3:50 PM58.0 °F45.0 °F51 %30.04 in25.0 miSouth (180°)10.4 mphMostly Cloudy
3:50 PM59.0 °F44.6 °F59 %30.04 in6.2 miSouth (180°)10.4 mphMostly Cloudy
4:50 PM59.0 °F48.2 °F67 %30.04 in6.2 miSouth (180°)9.2 mphMostly Cloudy
5:50 PM59.0 °F42.8 °F55 %30.01 in6.2 miSSW (210°)8.1 mphOvercast
6:50 PM59.0 °F46.4 °F63 %30.01 in6.2 miSSW (210°)11.5 mphOvercast
6:50 PM59.0 °F46.0 °F52 %30.03 in22.0 miSSW (210°)11.5 mphOvercast
7:50 PM55.4 °F46.4 °F72 %30.04 in6.2 miSouth (190°)8.1 mphMostly Cloudy
8:50 PM55.4 °F48.2 °F77 %30.04 in6.2 miSSW (200°)8.1 mphMostly Cloudy
9:50 PM51.0 °F49.0 °F88 %30.06 in19.0 miSSW (200°)4.6 mphScattered Clouds
9:50 PM51.8 °F48.2 °F88 %30.04 in6.2 miSSW (200°)4.6 mphPartly Cloudy
10:50 PM48.2 °F46.4 °F93 %30.04 in6.2 miSSW (200°)4.6 mph
11:50 PM46.4 °F44.6 °F93 %30.04 in6.2 miSouth (180°)6.9 mphPartly Cloudy
Hourly data recorded from EGUB, located miles away from Nuneham Courtenay, England







STORIES FROM OUR PARTNERS